This is the latest recevied weather packets stored in our database for station/object N9DRW. If no packets are shown the sender has not sent any weather packets the latest 10 day(s).
| Time | Temp. | Humidity | Pressure | Rain* | Wind** | Luminosity | Snow |
|---|---|---|---|---|---|---|---|
| 1778049126 | 4.44° C | 68% | 0 hPa | 0 mm | - | - | - |
| 1778048525 | 4.44° C | 67% | 0 hPa | 0 mm | - | - | - |
| 1778047926 | 5° C | 63% | 0 hPa | 0 mm | - | - | - |
| 1778047326 | 4.44° C | 60% | 0 hPa | 0 mm | - | - | - |
| 1778046726 | 4.44° C | 59% | 0 hPa | 0 mm | - | - | - |
| 1778046126 | 4.44° C | 60% | 0 hPa | 0 mm | - | - | - |
| 1778045526 | 5° C | 58% | 0 hPa | 0 mm | - | - | - |
| 1778044926 | 5.56° C | 59% | 0 hPa | 0 mm | - | - | - |
| 1778044326 | 5.56° C | 56% | 0 hPa | 0 mm | - | - | - |
| 1778043726 | 6.11° C | 54% | 0 hPa | 0 mm | - | - | - |
| 1778043126 | 6.11° C | 55% | 0 hPa | 0 mm | - | - | - |
| 1778042526 | 6.11° C | 55% | 0 hPa | 0 mm | - | - | - |
| 1778041929 | 6.67° C | 53% | 0 hPa | 0 mm | - | - | - |
| 1778041326 | 6.67° C | 52% | 0 hPa | 0 mm | - | - | - |
| 1778040725 | 6.67° C | 51% | 0 hPa | 0 mm | - | - | - |
| 1778040126 | 6.67° C | 51% | 0 hPa | 0 mm | - | - | - |
| 1778039526 | 7.22° C | 53% | 0 hPa | 0 mm | - | - | - |
| 1778038926 | 7.78° C | 52% | 0 hPa | 0 mm | - | - | - |
| 1778038326 | 7.78° C | 48% | 0 hPa | 0 mm | - | - | - |
| 1778037725 | 8.33° C | 48% | 0 hPa | 0 mm | - | - | - |
| 1778037126 | 8.33° C | 46% | 0 hPa | 0 mm | - | - | - |
| 1778035926 | 8.89° C | 44% | 0 hPa | 0 mm | - | - | - |
| 1778035326 | 8.89° C | 44% | 0 hPa | 0 mm | - | - | - |
| 1778034726 | 9.44° C | 44% | 0 hPa | 0 mm | - | - | - |
| 1778034126 | 9.44° C | 43% | 0 hPa | 0 mm | - | - | - |
* Rain latest hour (hover to see other rain measurements)
** Current wind speed in m/s (hover to see current wind gust speed)